Location: Kr�ssbach
(47.0833°N, 11.2833°E)
Time: 06:46:13
(UTC+00:00)

Daily predictions for brighter satellites

Satellite Brightness Start Highest point End
(mag) Time Altitude Azimuth Time Altitude Azimuth Time Altitude Azimuth
NOAA 11 4.3 16:23:04 10° SSE 16:28:27 59° ENE 16:33:53 10° N
Cosmos 2263 Rocket 2.9 16:23:31 10° S 16:28:38 36° ESE 16:33:46 10° NE
CREW DRAGON DEMO-1 DEB 3.5 16:25:53 10° W 16:28:39 39° NNW 16:31:25 10° ENE
SMAP 3.0 16:24:49 10° SSE 16:29:27 75° ENE 16:34:07 10° N
CZ-3B R/B 2.7 16:28:06 10° NNW 16:29:42 18° NNE 16:32:07 10° ENE
SL-16 R/B 3.2 16:25:20 10° NW 16:30:52 53° WSW 16:36:22 10° S
Cosmos 2228 3.9 16:27:40 10° NNE 16:31:17 26° ENE 16:34:54 10° SE
H-2A R/B 3.4 16:28:33 10° E 16:31:39 17° ENE 16:34:46 10° NNE
Meteor 1-24 Rocket 4.4 16:29:22 10° SSE 16:33:57 29° E 16:38:29 10° NNE
Cosmos 1315 Rocket 3.6 16:30:33 10° N 16:34:01 29° ENE 16:37:31 10° SE
NOSS 3-4 (A) 3.6 16:28:35 10° SW 16:34:28 72° NW 16:40:48 10° NE
CORIOLIS 4.1 16:29:10 10° SSE 16:34:32 73° ENE 16:39:56 10° N
NOSS 3-4 (C) 3.6 16:28:42 10° SW 16:34:34 73° NW 16:40:55 10° NE
ADEOS Rocket 4.0 16:28:46 10° N 16:34:45 47° WNW 16:40:12 10° SW
Timation 1 Rocket 4.4 16:28:53 10° SSW 16:34:54 90° ESE 16:40:58 10° NNE
Abrixas rocket 2.5 16:32:30 10° W 16:35:06 50° SSW 16:37:41 10° SE
NOAA 12 4.1 16:33:17 10° SSE 16:38:31 90° SW 16:43:48 10° NNW
Cosmos 2034 Rocket 4.5 16:34:50 10° NNW 16:41:06 68° W 16:47:15 10° S
Cosmos 1300 3.3 16:39:45 10° N 16:43:17 34° ENE 16:46:47 10° SE
Cosmos 1943 3.3 16:39:09 10° NNW 16:44:44 54° ENE 16:50:16 10° SE
Cosmos 2279 Rocket 4.3 16:44:52 10° N 16:50:53 46° ENE 16:56:52 10° SSE
Cosmos 1908 3.9 16:47:48 10° NNW 16:51:37 59° W 16:55:25 10° S
ATLAS 2AS CENTAUR R/B 3.2 16:44:01 10° SW 16:51:58 79° NW 16:59:50 10° NE
ARGOS 4.3 16:49:37 10° ESE 16:53:24 20° ENE 16:57:12 10° NNE
Cosmos 1726 Rocket 4.2 16:50:25 10° N 16:54:21 32° ENE 16:58:18 10° SE
Lacrosse 5 2.9 16:50:21 10° NW 16:54:50 30° NNE 16:58:27 14° ENE
Helios 1A Rocket 4.3 16:52:28 10° ESE 16:55:22 19° ENE 16:58:17 10° NNE
Cosmos 773 Rocket 4.3 16:52:12 10° NNW 16:57:10 44° ENE 17:02:03 10° SE
Cosmos 1634 Rocket 4.0 16:54:26 10° N 17:00:42 82° E 17:06:59 10° S
CZ-2C R/B 4.4 17:01:40 12° E 17:01:40 12° E 17:03:10 10° ESE
Cosmos 2227 4.2 16:56:14 10° S 17:01:46 62° ESE 17:07:23 10° NNE
Okean-O 3.4 16:59:19 10° SE 17:03:08 29° ENE 17:06:57 10° N
COSMO-SKYMED 1 2.8 17:03:28 10° NNE 17:07:42 48° E 17:11:53 10° S
Cosmos 1536 Rocket 4.3 17:04:41 10° SSW 17:08:58 54° WNW 17:13:19 10° N
Cosmos 2227 Rocket 4.0 17:05:35 10° WSW 17:10:14 25° NW 17:14:56 10° N
Cosmos 1674 4.4 17:07:43 10° SW 17:11:14 34° WNW 17:14:47 10° N
Okean O Rocket 2.4 17:07:08 10° S 17:11:31 56° W 17:15:54 10° NNW
RESURS DK-1 2.4 17:08:05 10° SSW 17:12:13 82° WNW 17:16:12 11° NNE
ERS-2 2.8 17:12:03 17° NE 17:14:18 33° E 17:17:36 10° SSE
CZ-4B R/B 1.3 17:13:04 10° NNE 17:16:30 70° ESE 17:19:50 10° S
Cosmos 1538 Rocket 4.3 17:15:56 10° N 17:20:51 41° ENE 17:25:43 10° SE
CZ-4C R/B 2.9 17:18:02 10° WSW 17:22:58 47° NW 17:28:31 12° NNE
USA 234 3.8 17:19:06 19° ENE 17:23:28 43° NNE 17:29:34 10° NW
CZ-4B R/B 4.5 17:18:38 10° S 17:23:52 44° W 17:29:14 10° NNW
Cosmos 1844 Rocket 3.8 17:20:22 10° SSE 17:24:37 22° E 17:25:29 22° E
CZ-2D R/B 3.2 17:24:18 10° SSE 17:28:10 87° ENE 17:32:03 10° NNW
PSLV R/B 4.3 17:26:29 18° NE 17:29:16 42° E 17:33:16 10° S
Cosmos 1777 Rocket 4.2 17:25:05 10° S 17:30:08 49° ESE 17:33:47 18° NE
Meteor 2-5 Rocket 3.9 17:24:43 10° SSW 17:30:18 76° WNW 17:35:52 10° N
Cosmos 1354 Rocket 4.2 17:25:03 10° SSW 17:30:21 77° WNW 17:35:44 10° NNE
SL-14 R/B 3.8 17:27:00 10° SSW 17:30:48 58° WNW 17:34:40 10° N
SKYMED 3 4.5 17:27:22 10° NNE 17:31:45 85° ESE 17:36:05 10° SSW
IRS-1C Rocket 4.0 17:27:29 10° SSE 17:32:44 82° ENE 17:38:01 10° NNW
Cosmos 1603 4.2 17:27:09 10° NNW 17:32:47 64° WSW 17:38:26 10° SSE
COSMOS 2455 3.2 17:31:54 10° S 17:37:33 44° ESE 17:40:26 26° ENE
ATLAS 3B R/B 3.7 17:33:17 10° NW 17:39:59 51° WSW 17:46:56 10° SSE
Cosmos 2180 Rocket 4.5 17:33:39 10° N 17:40:04 81° E 17:46:28 10° S
YAOGAN 1 2.4 17:39:23 10° SSE 17:43:39 66° ENE 17:47:58 10° N
Cosmos 1606 Rocket 4.0 17:39:43 10° NNW 17:44:02 62° W 17:48:22 10° S
Cosmos 1892 Rocket 3.4 17:40:15 10° S 17:44:34 75° E 17:48:30 13° NNE
H-2A R/B 4.0 17:41:56 10° N 17:45:49 29° WNW 17:49:38 10° SW
CZ-2C R/B 3.3 17:44:02 10° S 17:49:13 74° WSW 17:54:44 10° NNW
CSL-04 Rocket 3.8 17:44:07 10° SE 17:49:17 51° ENE 17:54:34 10° N
Cosmos 1626 4.3 17:46:35 10° SW 17:49:41 25° WNW 17:52:51 10° NNW
Nadezhda 4 Rocket 4.0 17:45:01 10° S 17:51:08 58° E 17:57:13 10° NNE
SKYMED 2 4.2 17:51:29 10° N 17:55:45 55° WNW 18:00:00 10° SSW
CZ-4 R/B 1.5 17:51:45 10° S 17:55:54 79° WSW 17:59:59 10° NNW
MOS 1 Rocket 3.2 17:53:06 10° N 17:57:28 72° WNW 18:01:43 10° SSW
ATLAS 5 CENTAUR R/B 2.1 17:55:15 10° WSW 17:59:12 52° NW 18:01:05 30° NNE
Meteor 2-10 Rocket 3.7 17:59:06 10° NNW 18:04:44 81° W 18:10:05 10° S
NOSS 3-1 (C) 4.4 18:00:36 10° NW 18:07:17 40° NE 18:09:09 36° ENE
DMSP B5D1-3 4.4 18:05:57 29° NNE 18:08:33 70° ESE 18:13:37 10° S
Cosmos 2058 Rocket 3.3 18:04:15 10° NNW 18:08:43 71° W 18:13:12 10° S
H-2A R/B 2.0 18:05:29 10° S 18:10:26 78° WSW 18:15:32 10° NNW
SJ 16-02 2.5 18:06:18 10° S 18:08:46 30° SSE 18:08:46 30° SSE
Cosmos 2263 Rocket 3.3 18:07:07 10° SW 18:12:29 42° NW 18:17:05 14° NNE
SAR-Lupe-4 4.0 18:12:53 52° NNW 18:13:24 60° WNW 18:16:56 10° SSW
Okean 1-7 Rocket 3.6 18:09:29 10° S 18:14:01 83° W 18:16:13 31° N
EXPRESS MD2 3.8 18:08:44 10° WNW 18:16:04 72° SSW 18:16:50 58° SSE
Cosmos 1689 Rocket 4.5 18:22:28 20° SW 18:22:28 20° SW 18:23:36 10° SW
USA 229 4.4 18:15:58 10° NW 18:22:33 37° NNE 18:23:08 37° NE
USA 229 DEB 4.4 18:15:58 10° NW 18:22:33 38° NNE 18:23:09 37° NE
Cosmos 923 Rocket 4.1 18:17:32 10° NNW 18:22:20 58° NE 18:22:20 58° NE
Cosmos 1818 3.9 18:20:49 10° SSW 18:25:18 50° SSE 18:25:18 50° SSE
Helios 1A Rocket 3.9 18:26:12 10° S 18:30:11 48° W 18:34:13 10° NNW
USA 267 3.2 18:29:51 55° E 18:30:52 61° SE 18:37:19 10° SW
Meteor 2-13 Rocket 4.5 18:24:47 10° SSW 18:30:52 79° W 18:37:03 10° N
ISS -0.7 18:28:21 10° SSW 18:28:24 10° SSW 18:28:24 10° SSW
Cosmos 1680 Rocket 4.4 18:26:14 10° NNW 18:29:33 36° N 18:29:33 36° N
ARGOS 3.3 18:27:47 10° S 18:33:07 71° WSW 18:38:31 10° NNW
CSL-04 Debris 4.4 18:29:05 10° S 18:34:27 67° WSW 18:39:50 10° NNW
SL-24 R/B - RUBIN 2 4.5 18:28:16 10° SSW 18:34:51 68° ESE 18:35:23 65° E
Cosmos 1844 4.0 18:30:42 10° SSW 18:35:08 52° SSE 18:35:08 52° SSE
Meteor 1-21 Rocket 4.1 18:31:38 10° S 18:37:10 88° WNW 18:38:13 61° N
NOSS 3-1 (A) 4.5 18:31:19 10° NW 18:38:01 40° NE 18:38:03 40° NE
Lacrosse 5 2.1 18:33:23 10° NW 18:37:41 61° NNW 18:37:41 61° NNW
Okean-O 4.3 18:35:32 10° SSW 18:39:31 33° W 18:43:33 10° NNW
USA 281 4.3 18:42:04 28° NNE 18:42:04 28° NNE 18:45:48 10° NNW
Cosmos 2082 Rocket 4.3 18:36:40 10° N 18:37:45 13° N 18:37:45 13° N
CZ-2C R/B 2.9 18:43:09 59° S 18:43:09 59° S 18:47:39 10° SSW
ATLAS 2AS CENTAUR R/B 4.3 18:37:15 10° W 18:44:09 32° NNW 18:48:02 21° NNE
Cosmos 158 Rocket 4.3 18:46:43 10° NNW 18:51:25 66° WNW 18:51:25 66° WNW
Cosmos 2195 Rocket 4.4 18:47:28 10° S 18:53:47 88° W 18:54:34 71° N
USA 234 3.2 19:06:27 77° NNW 19:06:27 77° NNW 19:12:38 10° NW
Cosmos 1844 Rocket 3.2 19:02:25 10° SW 19:07:13 56° W 19:07:13 56° W
CZ-4C R/B 4.2 19:08:53 10° WNW 19:13:09 21° NNW 19:13:42 20° N
Cosmos 1092 Rocket 4.5 19:09:37 10° SSW 19:15:42 57° WNW 19:17:18 44° NNW
COSMOS 2455 3.8 19:17:53 10° WSW 19:23:33 41° NW 19:23:37 41° NW
Cosmos 2344 4.2 19:16:13 10° NW 19:25:28 79° NE 19:26:41 72° ESE
